TimeCDT,TemperatureF,Dew PointF,Humidity,Sea Level PressureIn,VisibilityMPH,Wind Direction,Wind SpeedMPH,Gust SpeedMPH,PrecipitationIn,Events,Conditions,WindDirDegrees,DateUTC
12:15 AM,34.0,32.5,94,29.80,5.0,North,16.1,24.2,N/A,Rain,Light Rain,10,2013-04-18 05:15:00
12:35 AM,34.0,32.4,94,29.82,10.0,North,16.1,21.9,N/A,,Overcast,10,2013-04-18 05:35:00
12:55 AM,34.0,32.2,93,29.82,10.0,North,13.8,20.7,N/A,,Overcast,360,2013-04-18 05:55:00
1:15 AM,33.8,32.0,93,29.80,10.0,North,16.1,24.2,N/A,,Overcast,10,2013-04-18 06:15:00
1:35 AM,33.8,32.0,93,29.82,10.0,North,15.0,19.6,N/A,,Overcast,10,2013-04-18 06:35:00
1:55 AM,33.8,32.0,93,29.85,7.0,North,12.7,17.3,N/A,,Overcast,10,2013-04-18 06:55:00
2:15 AM,33.8,32.0,93,29.86,7.0,North,11.5,-,N/A,,Overcast,350,2013-04-18 07:15:00
2:35 AM,33.3,32.0,95,29.82,5.0,North,12.7,23.0,N/A,Rain,Rain,10,2013-04-18 07:35:00
2:55 AM,33.1,32.0,96,29.82,4.0,North,15.0,21.9,N/A,Rain,Light Rain,10,2013-04-18 07:55:00
3:15 AM,32.9,32.0,96,29.81,3.0,North,17.3,21.9,0.01,Snow,Light Snow,360,2013-04-18 08:15:00
3:35 AM,32.5,31.8,97,29.80,4.0,North,18.4,24.2,0.02,Snow,Light Snow,360,2013-04-18 08:35:00
3:55 AM,32.2,31.8,99,29.76,4.0,North,15.0,21.9,0.03,Snow,Light Snow,10,2013-04-18 08:55:00
4:15 AM,32.2,31.6,98,29.75,7.0,North,17.3,24.2,N/A,,Overcast,10,2013-04-18 09:15:00
4:35 AM,32.2,31.5,97,29.71,7.0,North,18.4,27.6,N/A,,Overcast,10,2013-04-18 09:35:00
4:55 AM,32.4,31.5,96,29.72,10.0,North,15.0,28.8,N/A,,Overcast,360,2013-04-18 09:55:00
5:15 AM,32.4,31.1,95,29.70,10.0,North,16.1,25.3,N/A,,Overcast,10,2013-04-18 10:15:00
5:35 AM,32.4,31.1,95,29.73,10.0,North,12.7,26.5,N/A,,Overcast,10,2013-04-18 10:35:00
5:55 AM,32.5,31.1,94,29.72,10.0,North,16.1,20.7,N/A,,Overcast,360,2013-04-18 10:55:00
6:15 AM,32.4,30.7,94,29.70,7.0,North,16.1,26.5,N/A,,Overcast,360,2013-04-18 11:15:00
6:35 AM,32.2,30.6,94,29.71,10.0,North,15.0,21.9,N/A,,Overcast,360,2013-04-18 11:35:00
6:55 AM,32.0,30.7,95,29.72,7.0,North,12.7,20.7,N/A,Snow,Light Snow,10,2013-04-18 11:55:00
7:15 AM,32.0,30.7,95,29.69,4.0,North,15.0,-,N/A,,Overcast,10,2013-04-18 12:15:00
7:35 AM,32.0,31.1,96,29.71,4.0,North,11.5,-,N/A,,Overcast,360,2013-04-18 12:35:00
7:55 AM,32.0,30.9,96,29.71,3.0,North,12.7,17.3,N/A,Snow,Light Snow,360,2013-04-18 12:55:00
8:15 AM,32.0,31.1,96,29.71,1.8,North,15.0,18.4,N/A,Snow,Light Snow,360,2013-04-18 13:15:00
8:35 AM,32.0,31.1,96,29.72,1.2,North,9.2,-,0.01,Snow,Light Snow,350,2013-04-18 13:35:00
8:55 AM,32.0,31.1,96,29.73,0.8,North,13.8,-,0.01,Snow,Light Snow,350,2013-04-18 13:55:00
9:15 AM,32.0,31.5,98,29.75,0.8,NNW,9.2,-,N/A,Snow,Light Snow,330,2013-04-18 14:15:00
9:35 AM,32.0,31.1,96,29.72,1.0,NNW,13.8,18.4,0.01,Snow,Light Snow,340,2013-04-18 14:35:00
9:55 AM,32.0,31.1,96,29.72,0.8,NNW,13.8,18.4,0.01,Snow,Light Snow,340,2013-04-18 14:55:00
10:15 AM,32.0,31.1,96,29.72,0.8,North,13.8,21.9,N/A,Snow,Light Snow,350,2013-04-18 15:15:00
10:35 AM,32.0,31.1,96,29.71,0.5,North,13.8,23.0,N/A,Snow,Snow,350,2013-04-18 15:35:00
10:55 AM,32.0,31.1,96,29.71,0.8,NNW,18.4,26.5,N/A,Snow,Light Snow,340,2013-04-18 15:55:00
11:15 AM,32.0,30.9,96,29.71,0.8,NNW,13.8,26.5,N/A,Snow,Light Snow,330,2013-04-18 16:15:00
11:35 AM,31.8,30.4,94,29.71,0.8,NNW,19.6,29.9,N/A,Snow,Light Snow,340,2013-04-18 16:35:00
11:55 AM,31.5,30.0,94,29.70,0.8,NNW,20.7,29.9,N/A,Snow,Light Snow,340,2013-04-18 16:55:00
12:15 PM,31.5,29.8,94,29.70,0.5,NNW,18.4,27.6,N/A,Snow,Snow,330,2013-04-18 17:15:00
12:35 PM,31.6,30.0,94,29.68,0.5,NNW,19.6,25.3,N/A,Snow,Snow,330,2013-04-18 17:35:00
12:55 PM,32.0,30.2,93,29.68,0.8,NNW,20.7,27.6,N/A,Snow,Light Snow,340,2013-04-18 17:55:00
1:15 PM,32.0,30.0,92,29.67,0.8,NNW,19.6,28.8,N/A,Snow,Light Snow,330,2013-04-18 18:15:00
1:35 PM,32.0,30.2,93,29.67,1.0,NNW,20.7,31.1,N/A,Snow,Light Snow,330,2013-04-18 18:35:00
1:55 PM,32.0,30.2,93,29.67,1.5,NNW,17.3,27.6,N/A,Snow,Light Snow,330,2013-04-18 18:55:00
2:15 PM,32.2,30.2,92,29.68,1.2,NNW,19.6,26.5,N/A,Snow,Light Snow,330,2013-04-18 19:15:00
2:35 PM,32.0,30.2,93,29.69,1.2,NNW,18.4,27.6,N/A,Snow,Light Snow,330,2013-04-18 19:35:00
2:55 PM,32.0,30.2,93,29.69,0.5,NW,20.7,26.5,N/A,Snow,Light Snow,320,2013-04-18 19:55:00
3:35 PM,32.2,30.7,94,29.69,1.0,NW,20.7,27.6,N/A,Snow,Light Snow,320,2013-04-18 20:35:00
3:55 PM,32.5,30.9,94,29.69,1.0,NW,15.0,23.0,N/A,Snow,Light Snow,320,2013-04-18 20:55:00
4:15 PM,32.5,30.7,93,29.69,1.8,NW,16.1,29.9,N/A,Snow,Light Snow,320,2013-04-18 21:15:00
4:35 PM,32.5,30.7,93,29.69,1.8,NW,16.1,29.9,N/A,Snow,Light Snow,320,2013-04-18 21:35:00
4:55 PM,32.5,30.7,93,29.70,2.0,NW,20.7,27.6,N/A,Snow,Light Snow,320,2013-04-18 21:55:00
5:15 PM,32.4,30.4,92,29.71,1.8,NW,17.3,32.2,N/A,Snow,Light Snow,320,2013-04-18 22:15:00
5:35 PM,32.0,30.2,93,29.71,1.0,NW,20.7,26.5,N/A,Snow,Light Snow,310,2013-04-18 22:35:00
5:55 PM,32.0,30.2,93,29.72,1.0,NW,17.3,27.6,N/A,Snow,Light Snow,320,2013-04-18 22:55:00
6:15 PM,31.8,29.8,92,29.73,1.0,NW,13.8,27.6,N/A,Snow,Light Snow,320,2013-04-18 23:15:00
6:35 PM,31.6,29.7,92,29.73,1.0,NW,17.3,27.6,N/A,Snow,Light Snow,320,2013-04-18 23:35:00
6:55 PM,31.6,29.8,93,29.74,1.0,NW,17.3,28.8,N/A,Snow,Light Snow,320,2013-04-18 23:55:00
7:15 PM,31.5,29.7,93,29.75,1.0,NW,18.4,28.8,N/A,Snow,Light Snow,320,2013-04-19 00:15:00
7:35 PM,31.3,29.3,92,29.75,1.5,NW,16.1,29.9,N/A,Snow,Light Snow,310,2013-04-19 00:35:00
7:55 PM,31.1,29.1,92,29.76,2.0,NW,17.3,29.9,N/A,Snow,Light Snow,310,2013-04-19 00:55:00
8:15 PM,31.1,28.9,92,29.77,1.8,NW,20.7,26.5,N/A,Snow,Light Snow,320,2013-04-19 01:15:00
8:35 PM,31.1,28.8,91,29.77,4.0,NW,17.3,26.5,N/A,Snow,Light Snow,310,2013-04-19 01:35:00
10:35 PM,31.1,29.1,92,29.77,3.0,NW,17.3,28.8,N/A,Snow,Light Snow,310,2013-04-19 03:35:00
10:55 PM,31.1,29.1,92,29.77,3.0,WNW,16.1,26.5,N/A,Snow,Light Snow,300,2013-04-19 03:55:00
11:15 PM,30.7,28.4,91,29.77,3.0,NW,15.0,28.8,N/A,Snow,Light Snow,320,2013-04-19 04:15:00
11:35 PM,30.9,28.4,90,29.77,5.0,NW,17.3,27.6,N/A,Snow,Light Snow,320,2013-04-19 04:35:00
11:55 PM,30.2,27.5,90,29.76,5.0,NW,19.6,26.5,N/A,Snow,Light Snow,310,2013-04-19 04:55:00